This is the latest recevied weather packets stored in our database for station/object N4CRH-13. If no packets are shown the sender has not sent any weather packets the latest 10 day(s).
| Time | Temp. | Humidity | Pressure | Rain* | Wind** | Luminosity | Snow |
|---|---|---|---|---|---|---|---|
| 1778027026 | -1.11° C | 99% | 1289.8 hPa | 0 mm | - | 10 W/m² | - |
| 1778026722 | -0.56° C | 99% | 1289.8 hPa | 0 mm | - | 11 W/m² | - |
| 1778026419 | -0.56° C | 99% | 1290 hPa | 0 mm | - | 11 W/m² | - |
| 1778026116 | 0° C | 99% | 1289.8 hPa | 0 mm | - | 7 W/m² | - |
| 1778025814 | 0° C | 99% | 1289.8 hPa | 0 mm | - | 7 W/m² | - |
| 1778025511 | 0° C | 99% | 1289.4 hPa | 0 mm | - | 8 W/m² | - |
| 1778025207 | 0° C | 99% | 1289.5 hPa | 0 mm | - | 13 W/m² | - |
| 1778024899 | 0° C | 99% | 1289.2 hPa | 0 mm | - | 17 W/m² | - |
| 1778024597 | 0° C | 99% | 1289.5 hPa | 0 mm | - | 14 W/m² | - |
| 1778024294 | 0° C | 99% | 1289.6 hPa | 0 mm | - | 15 W/m² | - |
| 1778023991 | 0° C | 99% | 1289.5 hPa | 0 mm | - | 26 W/m² | - |
| 1778023689 | 0° C | 99% | 1289.2 hPa | 0 mm | - | 24 W/m² | - |
| 1778023386 | 0° C | 99% | 1289.2 hPa | 0 mm | - | 27 W/m² | - |
| 1778023083 | 0.56° C | 99% | 1289.2 hPa | 0 mm | - | 20 W/m² | - |
| 1778022781 | 0.56° C | 99% | 1289.2 hPa | 0 mm | - | 31 W/m² | - |
| 1778022479 | 0.56° C | 99% | 1289.2 hPa | 0 mm | - | 38 W/m² | - |
| 1778022175 | 0.56° C | 99% | 1289 hPa | 0 mm | - | 56 W/m² | - |
| 1778021871 | 0.56° C | 99% | 1288.5 hPa | 0 mm | - | 65 W/m² | - |
| 1778021569 | 0.56° C | 99% | 1288.6 hPa | 0 mm | - | 60 W/m² | - |
| 1778021263 | 0.56° C | 99% | 1288.7 hPa | 1.27 mm | - | 48 W/m² | - |
| 1778020962 | 0.56° C | 99% | 1288.6 hPa | 1.27 mm | - | 43 W/m² | - |
| 1778020659 | 0.56° C | 99% | 1288.5 hPa | 0 mm | - | 51 W/m² | - |
| 1778020356 | 0.56° C | 99% | 1288.6 hPa | 0 mm | - | 53 W/m² | - |
| 1778020052 | 0.56° C | 99% | 1288.6 hPa | 0 mm | - | 63 W/m² | - |
| 1778019748 | 0.56° C | 99% | 1288.5 hPa | 0 mm | - | 69 W/m² | - |
* Rain latest hour (hover to see other rain measurements)
** Current wind speed in m/s (hover to see current wind gust speed)